[[{"header":{"parameterUnit":"m.s-1","parameterCategory":2,"la1":30.2991,"la2":30.254,"lo1":-89.0895,"lo2":-89.0444,"dy":0.0017,"dx":0.0017,"nx":28,"ny":28,"refTime":"2024-03-06T09:00:00:Z","depth":"0","parameterNumber":2,"parameterNumberName":"U-component_of_CURRENTS"},"data":[0,0,0,0,0,0,0,0,0,0,0,0,0,0,0,0,0,0,0,0,0,0,0,0,0,0,0,0,0,0,0,0,0,0,0,0,0,0,0,0,0,0,0,0,0,0,0,0,0,0,0,0,0,0,0,0,0,0,0.4938,0.4938,0,0.4891,0.489,0.4889,0.479,0.4789,0.4788,0.4787,0.4577,0.4573,0.4568,0,0,0,0,0,0,0,0,0,0,0,0,0,0.4937,0.4937,0.4938,0.4938,0.4939,0.4891,0.489,0.4888,0.479,0.4789,0.4788,0.4786,0.4579,0.4573,0.4568,0,0,0,0,0,0,0,0,0,0,0,0,0,0.4909,0.4936,0.4938,0.4892,0.4888,0.4892,0.489,0.4888,0.479,0.4789,0.4787,0.4786,0.4581,0.4574,0.4567,0.4555,0,0,0.4546,0.4543,0,0,0,0,0,0,0,0,0.491,0.4907,0.4898,0.4895,0.4891,0.4854,0.4813,0.4772,0.4791,0.4816,0.4787,0.4785,0.4663,0.4649,0.4631,0.4545,0.4536,0.4545,0.4541,0.4538,0.4536,0,0,0,0,0,0,0,0.4912,0.4909,0.4909,0.4899,0.4895,0.4873,0.4866,0.4805,0.4737,0.4814,0.4809,0.4821,0.4658,0.4638,0.4625,0.4533,0.4545,0.4539,0.4535,0.4532,0.4497,0.45,0,0,0,0,0,0,0.4941,0.4911,0.491,0.4908,0.4909,0.4875,0.4867,0.4859,0.4741,0.4727,0.4823,0.4817,0.4651,0.4633,0.4617,0.4653,0.4538,0.4532,0.4528,0.4494,0.4498,0.4501,0,0,0,0,0,0,0.4941,0.4941,0.4912,0.4918,0.4914,0.4878,0.4869,0.4859,0.4851,0.4752,0.4731,0.4828,0.4649,0.4627,0.4602,0.4642,0.4528,0.4522,0.449,0.4495,0.45,0.4688,0,0,0,0,0,0,0.4941,0.494,0.4944,0.492,0.4915,0.4925,0.4871,0.486,0.4866,0.4857,0.475,0.4728,0.4646,0.4614,0.4595,0.463,0.4517,0.4486,0.4492,0.4498,0.4678,0.4699,0.4717,0,0,0,0,0,0.4941,0.4948,0.4944,0.4945,0.4921,0.4927,0.4922,0.4883,0.4868,0.4869,0.4822,0.4732,0.4639,0.4611,0.4589,0.4622,0.4483,0.449,0.4498,0.4669,0.4695,0.4716,0,0,0,0,0,0,0.4935,0.494,0.4934,0.4938,0.4944,0.4914,0.492,0.4906,0.4871,0.4862,0.4767,0.4743,0.4741,0.4666,0.4637,0.4636,0.4549,0.4552,0.4687,0.471,0.4729,0.4734,0.4511,0,0,0,0,0,0.4947,0.4955,0.4959,0.4962,0.4975,0.4957,0.4958,0.4938,0.4912,0.4894,0.4828,0.4774,0.4754,0.472,0.4673,0.4663,0.4616,0.4675,0.4695,0.4712,0.4705,0.4703,0.4721,0.4525,0.4525,0.4525,0,0,0.4951,0.4952,0.4958,0.4965,0.4964,0.4988,0.495,0.4962,0.4979,0.4877,0.4869,0.4837,0.4772,0.4772,0.4763,0.471,0.4751,0.4721,0.4736,0.4719,0.4712,0.4731,0.4747,0.453,0.4529,0.4528,0,0,0.4965,0.4966,0.4985,0.5005,0.5026,0.5016,0.5034,0.5023,0.5016,0.5024,0.4975,0.4981,0.4909,0.4889,0.487,0.497,0.4865,0.4953,0.5036,0.5036,0.5051,0.5064,0.506,0.5071,0.495,0.4951,0.4951,0,0.4968,0.4981,0.4992,0.5026,0.5043,0.5042,0.5069,0.5079,0.5058,0.5068,0.504,0.5025,0.4971,0.5006,0.5045,0.5012,0.4987,0.4952,0.506,0.5072,0.5082,0.5074,0.5084,0.4961,0.4959,0.4958,0.4957,0,0.5002,0.5022,0.5041,0.5078,0.5103,0.5123,0.5155,0.5171,0.5171,0.5177,0.5217,0.5181,0.5164,0.5173,0.5134,0.5192,0.5147,0.5097,0.4999,0.5113,0.5098,0.5105,0.4975,0.4971,0.4968,0.4966,0,0,0.4961,0.5045,0.505,0.5073,0.5127,0.514,0.5203,0.5241,0.5276,0.5296,0.5338,0.5361,0.5351,0.5332,0.5303,0.5311,0.5381,0.5238,0.5233,0.5232,0.538,0.5355,0.5358,0.5346,0.5348,0.5349,0.5353,0,0.497,0.5026,0.5073,0.5124,0.5147,0.5195,0.5245,0.5294,0.5325,0.5367,0.5403,0.5425,0.5412,0.5408,0.5434,0.539,0.5402,0.5384,0.527,0.5267,0.5229,0.5367,0.5225,0.5217,0.5359,0.5359,0.536,0,0.4966,0.5001,0.5051,0.5125,0.5144,0.5187,0.5252,0.5303,0.5395,0.5426,0.5494,0.5503,0.5565,0.5511,0.5534,0.5521,0.5466,0.5432,0.5429,0.5335,0.5254,0.5119,0.5222,0.5111,0.5369,0.5368,0.5367,0,0.4888,0.4975,0.5002,0.5033,0.5129,0.5167,0.5219,0.5312,0.5359,0.5462,0.5502,0.5579,0.5611,0.559,0.5563,0.5536,0.556,0.55,0.5431,0.5428,0.5247,0.5226,0.5218,0.5491,0.5491,0.5491,0.5491,0,0.4849,0.4875,0.4971,0.4992,0.5026,0.5123,0.5179,0.5251,0.536,0.5416,0.5522,0.5576,0.5628,0.5655,0.5598,0.5568,0.5593,0.5474,0.544,0.5314,0.53,0.5141,0.5101,0.5491,0.5491,0.5491,0.5491,0,0.4758,0.4825,0.4857,0.4958,0.4988,0.5013,0.5141,0.5179,0.5313,0.539,0.5425,0.5588,0.5643,0.5676,0.5653,0.5614,0.5422,0.5524,0.5387,0.5339,0.5171,0.5147,0.4871,0.4728,0.5457,0.5457,0.5457,0,0.4717,0.4725,0.4804,0.4816,0.4864,0.4928,0.4963,0.5116,0.5168,0.5377,0.5397,0.5534,0.5583,0.5622,0.5593,0.5538,0.5365,0.5359,0.5285,0.5177,0.5124,0.4902,0.4785,0.5124,0.5121,0.5119,0.5117,0,0.4638,0.4666,0.4699,0.4705,0.4737,0.4778,0.4861,0.489,0.5064,0.5134,0.5241,0.5312,0.5457,0.5397,0.5418,0.5363,0.5147,0.5306,0.5212,0.49,0.4632,0.4472,0.5114,0.5095,0.5097,0.5099,0.51,0.5101,0.4573,0.4555,0.4585,0.4569,0.4597,0.4596,0.4555,0.4656,0.4695,0.474,0.4972,0.4995,0.5173,0.5209,0.5134,0.5021,0.4966,0.4882,0.4874,0.4666,0.4488,0.5106,0.5041,0.5043,0.5044,0.5046,0.5047,0,0.4435,0.4436,0.4441,0.4405,0.4339,0.4419,0.4434,0.4349,0.428,0.4436,0.4481,0.4628,0.4643,0.4748,0.4793,0.4636,0.4377,0.4507,0.4165,0.4081,0.4657,0.4609,0.4423,0.4423,0.4423,0.4423,0.4424,0.4424,0.4369,0.4303,0.428,0.4128,0.4095,0.3938,0.388,0.3805,0.3848,0.3816,0.3873,0.4031,0.4378,0.4544,0.4457,0.4346,0.4015,0.3831,0.3789,0.4249,0.4281,0.4312,0.4257,0.4001,0.4001,0.3026,0.302,0.3014]},{"header":{"parameterUnit":"m.s-1","parameterCategory":2,"la1":30.2991,"la2":30.254,"lo1":-89.0895,"lo2":-89.0444,"dy":0.0017,"dx":0.0017,"nx":28,"ny":28,"refTime":"2024-03-06T09:00:00:Z","depth":"0","parameterNumber":3,"parameterNumberName":"V-component_of_CURRENTS"},"data":[0,0,0,0,0,0,0,0,0,0,0,0,0,0,0,0,0,0,0,0,0,0,0,0,0,0,0,0,0,0,0,0,0,0,0,0,0,0,0,0,0,0,0,0,0,0,0,0,0,0,0,0,0,0,0,0,0,0,0.0106,0.0105,0,0.0049,0.0048,0.0047,0.0007,0.0007,0.0007,0.0006,-0.0046,-0.0047,-0.0048,0,0,0,0,0,0,0,0,0,0,0,0,0,0.0113,0.0113,0.0106,0.0105,0.0105,0.0049,0.0048,0.0047,0.0007,0.0007,0.0007,0.0006,-0.0046,-0.0047,-0.0049,0,0,0,0,0,0,0,0,0,0,0,0,0,0.0087,0.0113,0.0106,0.0079,0.0076,0.0049,0.0048,0.0047,0.0007,0.0007,0.0006,0.0006,-0.0045,-0.0047,-0.0049,-0.0053,0,0,-0.0054,-0.0055,0,0,0,0,0,0,0,0,0.0089,0.0087,0.0083,0.0081,0.0077,0.0036,0.0031,0.0014,0.0007,0.0032,0.0006,0.0006,-0.0017,-0.0021,-0.0033,-0.0056,-0.0058,-0.0054,-0.0056,-0.0056,-0.0057,0,0,0,0,0,0,0,0.0091,0.0089,0.0082,0.0083,0.0079,0.0046,0.0043,0.0027,0.0009,0.003,0.0027,0.0023,-0.0019,-0.0031,-0.0035,-0.0059,-0.0054,-0.0056,-0.0057,-0.0058,-0.0083,-0.0083,0,0,0,0,0,0,0.0104,0.0091,0.0084,0.0081,0.0084,0.0047,0.0043,0.0048,0.0009,0.0003,0.0023,0.0021,-0.0028,-0.0033,-0.0037,-0.0018,-0.0056,-0.0058,-0.0059,-0.0083,-0.0083,-0.0083,0,0,0,0,0,0,0.0105,0.0104,0.0086,0.0084,0.008,0.0048,0.0054,0.0048,0.004,0.0004,-0.0002,0.0022,-0.0029,-0.0034,-0.0048,-0.0021,-0.0059,-0.006,-0.0084,-0.0083,-0.0083,0.0003,0,0,0,0,0,0,0.0105,0.0105,0.0112,0.0086,0.0081,0.0086,0.0054,0.0047,0.0037,0.0034,0.0001,-0.0004,-0.0029,-0.0045,-0.005,-0.0024,-0.0062,-0.0084,-0.0084,-0.0083,-0.0,0.0006,0.0012,0,0,0,0,0,0.0106,0.0124,0.0113,0.0112,0.0093,0.0087,0.0082,0.0056,0.0038,0.0045,0.0014,-0.0003,-0.0043,-0.0046,-0.0052,-0.0026,-0.0085,-0.0084,-0.0083,-0.0003,0.0005,0.0012,0,0,0,0,0,0,0.0134,0.0121,0.0109,0.0123,0.0111,0.0081,0.0081,0.0063,0.0043,0.0036,-0.0,-0.0007,-0.0012,-0.0034,-0.0036,-0.0034,-0.0066,-0.0066,-0.0003,0.0004,0.001,0.0041,-0.0063,0,0,0,0,0,0.0144,0.0154,0.0134,0.0147,0.0141,0.0111,0.0104,0.0088,0.0066,0.0057,0.0033,0.0006,-0.0013,-0.0016,-0.0041,-0.0034,-0.0066,-0.0023,-0.0016,-0.0011,0.0009,-0.002,-0.0014,-0.008,-0.008,-0.008,0,0,0.0157,0.0153,0.0157,0.0153,0.0138,0.015,0.0107,0.0104,0.0119,0.0055,0.0064,0.0024,-0.0011,-0.0009,-0.0011,-0.0021,-0.0014,-0.001,-0.0004,0.0013,-0.0019,-0.0012,-0.0007,-0.0079,-0.0079,-0.0079,0,0,0.02,0.0187,0.0211,0.0206,0.0194,0.0178,0.0182,0.0157,0.015,0.0146,0.0104,0.0083,0.0055,0.0042,0.003,0.0058,0.0013,0.0047,0.0117,0.0088,0.0093,0.0098,0.0049,0.0048,0.006,0.006,0.006,0,0.0216,0.0247,0.0217,0.024,0.0248,0.0199,0.0231,0.0217,0.0193,0.02,0.0161,0.0121,0.0085,0.01,0.0103,0.0077,0.0042,0.0094,0.0098,0.0102,0.0105,0.0053,0.0052,0.0064,0.0064,0.0063,0.0063,0,0.0279,0.03,0.0314,0.0331,0.0334,0.0351,0.0331,0.0332,0.0307,0.0294,0.029,0.0227,0.0211,0.0191,0.0154,0.0169,0.0128,0.0102,0.0084,0.0117,0.006,0.0057,0.007,0.0069,0.0068,0.0067,0,0,0.0334,0.0355,0.0363,0.0391,0.0385,0.0402,0.0422,0.044,0.0476,0.0421,0.046,0.0397,0.0356,0.0338,0.0286,0.0259,0.0233,0.0198,0.0195,0.016,0.0152,0.0142,0.0136,0.0206,0.0207,0.0207,0.0097,0,0.0397,0.0467,0.0458,0.0527,0.0561,0.0531,0.0566,0.0571,0.0561,0.0582,0.0512,0.0512,0.0416,0.0407,0.0364,0.0282,0.0232,0.0264,0.0117,0.0113,0.0109,0.0136,0.0186,0.0095,0.0094,0.0093,0.0093,0,0.0472,0.051,0.0591,0.0642,0.0655,0.069,0.0745,0.0769,0.0774,0.0764,0.0738,0.0674,0.0631,0.0533,0.04,0.0425,0.0293,0.0208,0.0201,0.0167,0.0099,0.0064,0.0089,-0.0139,0.0087,0.0088,0.0088,0,0.0547,0.0608,0.0682,0.0698,0.0743,0.0783,0.0809,0.0834,0.0885,0.0884,0.0918,0.0827,0.0808,0.0643,0.0454,0.0424,0.03,0.0235,0.009,0.0086,0.0091,0.0088,-0.0106,0.0117,0.0118,0.0118,0.0118,0,0.0625,0.0685,0.0728,0.0771,0.0877,0.0873,0.0983,0.0995,0.1041,0.1138,0.1023,0.1074,0.0836,0.0731,0.0516,0.0317,0.0339,0.0114,0.0069,0.0118,0.012,-0.011,-0.0242,0.0114,0.0115,0.0115,0.0116,0,0.0697,0.0722,0.0814,0.0882,0.0918,0.0995,0.1099,0.1177,0.1205,0.1329,0.1332,0.1269,0.1141,0.0886,0.0636,0.0428,0.009,0.0119,0.0184,0.015,-0.0199,-0.0327,-0.0553,-0.0653,-0.0057,-0.0058,-0.0058,0,0.074,0.0797,0.0905,0.0977,0.1016,0.1125,0.1211,0.1258,0.1356,0.1469,0.1545,0.1457,0.1443,0.1071,0.0683,0.031,0.0072,0.0083,0.0032,-0.0198,-0.0375,-0.0467,-0.0541,0.0051,0.0052,0.0052,0.0052,0,0.0828,0.0866,0.0942,0.1085,0.1192,0.1316,0.1443,0.1548,0.1639,0.1759,0.1897,0.1897,0.1564,0.1231,0.0711,0.0445,-0.0053,0.0076,-0.017,-0.0304,-0.0406,-0.0528,0.0076,0.0055,0.0054,0.0054,0.0054,0.0054,0.0898,0.0966,0.1069,0.1206,0.133,0.1497,0.1621,0.1775,0.1966,0.2168,0.2155,0.2229,0.1738,0.1057,0.0646,-0.0045,-0.0073,-0.0258,-0.0397,-0.0472,-0.0554,0.005,-0.0012,-0.0012,-0.0013,-0.0013,-0.0014,0,0.0982,0.106,0.1185,0.1351,0.1493,0.1546,0.177,0.1911,0.216,0.2367,0.249,0.2342,0.1702,0.1041,0.0107,-0.0415,-0.0601,-0.0698,-0.0828,-0.0885,-0.0348,-0.0328,-0.0449,-0.0448,-0.0448,-0.0448,-0.0448,-0.0447,0.1034,0.1157,0.1214,0.1457,0.1579,0.1781,0.1917,0.2143,0.2337,0.2614,0.2717,0.2745,0.228,0.0566,-0.0616,-0.0895,-0.1248,-0.1317,-0.1529,-0.118,-0.1149,-0.1121,-0.1134,-0.142,-0.1422,-0.197,-0.1976,-0.198]}],[{"header":{"parameterUnit":"m.s-1","parameterCategory":2,"la1":30.2991,"la2":30.254,"lo1":-89.0895,"lo2":-89.0444,"dy":0.0017,"dx":0.0017,"nx":28,"ny":28,"refTime":"2024-03-06T09:00:00:Z","depth":"2","parameterNumber":2,"parameterNumberName":"U-component_of_CURRENTS"},"data":[0,0,0,0,0,0,0,0,0,0,0,0,0,0,0,0,0,0,0,0,0,0,0,0,0,0,0,0,0,0,0,0,0,0,0,0,0,0,0,0,0,0,0,0,0,0,0,0,0,0,0,0,0,0,0,0,0,0,0.3434,0.3435,0,0.3496,0.3496,0.3497,0.3516,0.3516,0.3516,0.3516,0.3546,0.3547,0.3548,0,0,0,0,0,0,0,0,0,0,0,0,0,0.3343,0.3344,0.3434,0.3435,0.3436,0.3496,0.3496,0.3497,0.3516,0.3516,0.3516,0.3516,0.3546,0.3547,0.3548,0,0,0,0,0,0,0,0,0,0,0,0,0,0.3388,0.3344,0.3434,0.3456,0.3458,0.3496,0.3496,0.3497,0.3516,0.3516,0.3516,0.3516,0.3546,0.3547,0.3548,0.3555,0,0,0.3552,0.3552,0,0,0,0,0,0,0,0,0.3385,0.3391,0.3451,0.3454,0.3457,0.3501,0.3476,0.3516,0.3516,0.349,0.3516,0.3516,0.3531,0.3533,0.354,0.3556,0.3558,0.3552,0.3553,0.3553,0.3554,0,0,0,0,0,0,0,0.3382,0.3388,0.3455,0.3453,0.3456,0.3466,0.3472,0.3483,0.3506,0.3492,0.3495,0.3507,0.3532,0.3539,0.3541,0.3558,0.3552,0.3553,0.3554,0.3554,0.3665,0.3667,0,0,0,0,0,0,0.3381,0.3385,0.3453,0.3457,0.3425,0.3468,0.3474,0.3484,0.3507,0.3512,0.3507,0.3508,0.3537,0.354,0.3542,0.3617,0.3553,0.3554,0.3555,0.3663,0.3666,0.3668,0,0,0,0,0,0,0.3379,0.3387,0.3451,0.3425,0.3435,0.3469,0.348,0.3485,0.3508,0.3519,0.3522,0.3527,0.3537,0.354,0.3577,0.3616,0.3555,0.3556,0.366,0.3664,0.3667,0.3725,0,0,0,0,0,0,0.3376,0.3385,0.3411,0.3425,0.3436,0.3483,0.3481,0.3487,0.3517,0.3519,0.3537,0.3539,0.3537,0.3575,0.3578,0.3616,0.3557,0.3657,0.3662,0.3666,0.372,0.373,0.3738,0,0,0,0,0,0.3372,0.3395,0.3412,0.3421,0.3464,0.3485,0.3491,0.3513,0.3518,0.3532,0.3553,0.3539,0.3604,0.3578,0.3581,0.362,0.3655,0.3661,0.3665,0.3716,0.3728,0.3738,0,0,0,0,0,0,0.3373,0.34,0.3418,0.3451,0.3475,0.3489,0.3508,0.3523,0.3551,0.3563,0.356,0.3565,0.3616,0.3611,0.3582,0.3668,0.3631,0.3636,0.3668,0.3679,0.3688,0.3705,0.3558,0,0,0,0,0,0.3386,0.3403,0.3435,0.346,0.3472,0.3494,0.3513,0.3535,0.3554,0.3567,0.358,0.3605,0.3637,0.3651,0.3675,0.3713,0.3724,0.3744,0.3753,0.3761,0.3779,0.3833,0.3849,0.3684,0.3684,0.3684,0,0,0.3385,0.341,0.3416,0.3461,0.3476,0.3509,0.3504,0.354,0.358,0.3567,0.3619,0.3636,0.3655,0.3706,0.3729,0.3707,0.3812,0.3767,0.3773,0.3787,0.384,0.3856,0.387,0.3688,0.3687,0.3687,0,0,0.339,0.3419,0.3438,0.3464,0.3512,0.3533,0.3547,0.3582,0.3609,0.3657,0.3672,0.3715,0.3743,0.3778,0.3794,0.3867,0.386,0.3876,0.3931,0.3984,0.3998,0.401,0.4036,0.4051,0.3878,0.3878,0.3878,0,0.3397,0.3429,0.3447,0.3483,0.3512,0.3544,0.3582,0.3616,0.3665,0.3698,0.3683,0.377,0.3781,0.386,0.3892,0.3888,0.3909,0.3883,0.3995,0.4008,0.4019,0.4043,0.4058,0.3881,0.3881,0.388,0.388,0,0.3428,0.3456,0.3464,0.3521,0.3559,0.3591,0.3647,0.3694,0.3725,0.3762,0.3842,0.3865,0.3917,0.3932,0.3933,0.4033,0.4018,0.4,0.3964,0.4039,0.4059,0.4074,0.3886,0.3885,0.3884,0.3883,0,0,0.3402,0.3475,0.3469,0.3499,0.3586,0.3606,0.3693,0.3767,0.3818,0.3874,0.3939,0.4007,0.4026,0.4049,0.4065,0.4114,0.4207,0.41,0.4101,0.4118,0.4317,0.4258,0.4267,0.4211,0.4214,0.4217,0.4294,0,0.3413,0.347,0.3517,0.3564,0.3595,0.3666,0.3732,0.3816,0.3878,0.3948,0.4009,0.4073,0.4069,0.4101,0.4157,0.4205,0.425,0.4187,0.4249,0.425,0.4183,0.4285,0.3942,0.3979,0.4308,0.431,0.4312,0,0.3423,0.3456,0.3512,0.3581,0.3601,0.3653,0.3761,0.3837,0.3962,0.4012,0.4105,0.4143,0.4254,0.4217,0.4346,0.4309,0.4327,0.4345,0.4348,0.4287,0.422,0.3961,0.3993,0.4336,0.4334,0.4332,0.4331,0,0.3368,0.3441,0.3481,0.3507,0.3606,0.3656,0.373,0.3858,0.3931,0.4074,0.4133,0.4246,0.432,0.4376,0.4434,0.4401,0.4551,0.4497,0.4456,0.445,0.4168,0.4133,0.4577,0.4577,0.4577,0.4576,0.4576,0,0.3348,0.3356,0.3457,0.3463,0.3527,0.3627,0.3714,0.3811,0.3955,0.4044,0.4168,0.4247,0.4369,0.4461,0.4479,0.4533,0.4591,0.4496,0.4484,0.4178,0.4145,0.4457,0.4442,0.4579,0.4579,0.4578,0.4578,0,0.326,0.3319,0.3364,0.3466,0.3499,0.3556,0.3701,0.3757,0.3922,0.405,0.4104,0.4291,0.4425,0.4517,0.4624,0.4593,0.4635,0.4625,0.4256,0.42,0.4477,0.4465,0.4586,0.4585,0.4584,0.4583,0.4583,0,0.3214,0.3239,0.3346,0.3369,0.3411,0.3504,0.3555,0.3726,0.3803,0.4055,0.4103,0.4301,0.4397,0.4554,0.4552,0.4588,0.4652,0.4269,0.4146,0.4512,0.4488,0.4476,0.4465,0.3781,0.3774,0.3768,0.3764,0,0.313,0.3186,0.3212,0.3282,0.3332,0.3387,0.3491,0.3542,0.3749,0.3866,0.4022,0.4129,0.4318,0.4224,0.4313,0.4274,0.4239,0.4153,0.4643,0.3848,0.3764,0.3737,0.375,0.3712,0.3717,0.3721,0.3724,0.3726,0.3057,0.3074,0.313,0.3174,0.3225,0.325,0.3245,0.3359,0.3456,0.3597,0.3806,0.3862,0.395,0.3921,0.3818,0.3744,0.4031,0.3827,0.384,0.386,0.377,0.3691,0.3606,0.361,0.3614,0.3617,0.362,0,0.2964,0.2984,0.3015,0.3044,0.3025,0.3114,0.3164,0.3127,0.3162,0.3336,0.3446,0.3251,0.3237,0.3315,0.3135,0.3155,0.3068,0.3014,0.2855,0.2913,0.2963,0.282,0.2407,0.2403,0.2398,0.2395,0,0,0.2908,0.2876,0.2888,0.2817,0.2841,0.2769,0.2759,0.2747,0.2809,0.2806,0.2827,0.3105,0.3238,0.2778,0.2735,0.2529,0.2683,0.243,0.3417,0.3289,0.3333,0.3467,0.3319,0,0,0,0,0]},{"header":{"parameterUnit":"m.s-1","parameterCategory":2,"la1":30.2991,"la2":30.254,"lo1":-89.0895,"lo2":-89.0444,"dy":0.0017,"dx":0.0017,"nx":28,"ny":28,"refTime":"2024-03-06T09:00:00:Z","depth":"2","parameterNumber":3,"parameterNumberName":"V-component_of_CURRENTS"},"data":[0,0,0,0,0,0,0,0,0,0,0,0,0,0,0,0,0,0,0,0,0,0,0,0,0,0,0,0,0,0,0,0,0,0,0,0,0,0,0,0,0,0,0,0,0,0,0,0,0,0,0,0,0,0,0,0,0,0,0.0198,0.0198,0,0.0135,0.0134,0.0133,0.0088,0.0088,0.0087,0.0087,0.0018,0.0017,0.0015,0,0,0,0,0,0,0,0,0,0,0,0,0,0.0223,0.0223,0.0198,0.0197,0.0197,0.0135,0.0134,0.0133,0.0088,0.0088,0.0087,0.0087,0.0019,0.0017,0.0015,0,0,0,0,0,0,0,0,0,0,0,0,0,0.0191,0.0223,0.0198,0.0167,0.0164,0.0135,0.0134,0.0133,0.0088,0.0088,0.0087,0.0087,0.0019,0.0017,0.0015,0.001,0,0,0.0008,0.0007,0,0,0,0,0,0,0,0,0.0192,0.019,0.0173,0.0169,0.0166,0.0119,0.0117,0.0092,0.0088,0.0116,0.0087,0.0087,0.0052,0.0047,0.0036,0.0007,0.0004,0.0008,0.0006,0.0005,0.0005,0,0,0,0,0,0,0,0.0195,0.0192,0.0172,0.0172,0.0168,0.0137,0.0132,0.0112,0.0087,0.0114,0.0111,0.0105,0.005,0.0038,0.0034,0.0003,0.0008,0.0006,0.0004,0.0003,-0.0034,-0.0034,0,0,0,0,0,0,0.0207,0.0194,0.0175,0.0171,0.0179,0.0137,0.0132,0.0134,0.0087,0.008,0.0105,0.0103,0.0042,0.0036,0.0031,0.0041,0.0005,0.0003,0.0002,-0.0035,-0.0034,-0.0034,0,0,0,0,0,0,0.0208,0.0207,0.0177,0.0181,0.0175,0.0137,0.014,0.0133,0.0124,0.0081,0.0073,0.0103,0.0042,0.0034,0.0018,0.0037,0.0002,-0.0,-0.0035,-0.0035,-0.0034,0.0049,0,0,0,0,0,0,0.021,0.0208,0.0213,0.0182,0.0175,0.0172,0.014,0.0132,0.0121,0.0117,0.0077,0.007,0.0041,0.0021,0.0015,0.0033,-0.0002,-0.0036,-0.0035,-0.0034,0.0046,0.0052,0.0058,0,0,0,0,0,0.0211,0.0227,0.0214,0.0212,0.0185,0.0173,0.0167,0.0138,0.0122,0.0126,0.0094,0.0071,0.0022,0.002,0.0013,0.0031,-0.0036,-0.0035,-0.0034,0.0043,0.0051,0.0058,0,0,0,0,0,0,0.0243,0.0223,0.0208,0.0218,0.0201,0.0166,0.0166,0.0145,0.0123,0.0117,0.0076,0.0067,0.0058,0.0031,0.0031,0.002,-0.0011,-0.0011,0.005,0.0057,0.0063,0.0085,-0.0004,0,0,0,0,0,0.0252,0.0257,0.0233,0.024,0.0235,0.0201,0.0192,0.0173,0.0148,0.0137,0.0108,0.0077,0.0056,0.0047,0.002,0.0019,-0.0019,0.0024,0.003,0.0036,0.0047,0.0004,0.0008,-0.0031,-0.0031,-0.0031,0,0,0.0265,0.0255,0.0257,0.0246,0.0229,0.0237,0.0195,0.0188,0.0195,0.0134,0.0135,0.0097,0.0058,0.0053,0.0047,0.0035,0.0025,0.0037,0.0042,0.0051,0.0006,0.001,0.0013,-0.003,-0.003,-0.003,0,0,0.0301,0.0287,0.0306,0.0298,0.0281,0.0263,0.0266,0.0237,0.0226,0.0217,0.0175,0.015,0.0118,0.0096,0.008,0.0104,0.0055,0.0096,0.0151,0.0109,0.0112,0.0115,0.0066,0.0064,0.0104,0.0104,0.0104,0,0.0316,0.034,0.031,0.0327,0.0331,0.0282,0.0309,0.0291,0.026,0.026,0.0229,0.0178,0.0141,0.0139,0.0145,0.012,0.0085,0.0129,0.0119,0.012,0.0121,0.0071,0.0067,0.0108,0.0108,0.0107,0.0107,0,0.0368,0.0385,0.0397,0.0405,0.0406,0.0417,0.0394,0.0389,0.0364,0.0343,0.0327,0.0267,0.0241,0.0222,0.019,0.0187,0.0155,0.0128,0.0104,0.013,0.0075,0.0069,0.0114,0.0112,0.0111,0.011,0,0,0.0415,0.0431,0.0438,0.0461,0.045,0.0462,0.0473,0.0478,0.0498,0.0443,0.0459,0.0402,0.036,0.0339,0.029,0.0253,0.0219,0.0202,0.0198,0.0163,0.0122,0.01,0.0091,0.0191,0.0191,0.0191,0.0079,0,0.0468,0.0525,0.0517,0.0574,0.0603,0.0573,0.0597,0.0589,0.0568,0.0568,0.0494,0.0485,0.0409,0.0399,0.0348,0.0259,0.0209,0.0252,0.0095,0.0091,0.0075,0.0086,0.0124,0.0028,0.0073,0.0072,0.0071,0,0.0532,0.0561,0.063,0.0672,0.0684,0.0712,0.0746,0.076,0.0737,0.0719,0.0679,0.0616,0.0558,0.0484,0.0338,0.0369,0.0255,0.0171,0.0164,0.0114,0.006,0.0009,0.0016,0.0061,0.0062,0.0063,0.0063,0,0.0593,0.0646,0.0709,0.0721,0.0755,0.0789,0.081,0.0812,0.0847,0.0819,0.0831,0.0732,0.0698,0.0546,0.0368,0.0352,0.0197,0.015,0.0016,0.0013,0.0,-0.0003,0.0036,0.0036,0.0036,0.0037,0.0037,0,0.066,0.0708,0.0748,0.0781,0.0872,0.0868,0.0956,0.0956,0.0975,0.1036,0.0921,0.0934,0.0713,0.0594,0.0408,0.0206,0.0222,0.003,-0.0013,0.0029,0.0029,0.0024,0.0024,0.0033,0.0033,0.0034,0.0035,0,0.0719,0.0739,0.0816,0.0874,0.0905,0.0973,0.1061,0.1118,0.1122,0.1195,0.1193,0.109,0.0939,0.0704,0.0459,0.0278,0.0074,-0.0009,0.0052,0.0019,-0.01,-0.0095,-0.0174,-0.0175,-0.0177,-0.0178,-0.0179,0,0.0753,0.08,0.0893,0.0954,0.0988,0.1085,0.1157,0.1193,0.1265,0.1301,0.1347,0.1221,0.116,0.0785,0.0445,0.0115,0.0067,-0.0082,-0.011,-0.0085,-0.012,-0.0112,-0.0105,-0.0104,-0.0104,-0.0105,-0.0105,0,0.0821,0.0854,0.0918,0.1041,0.1134,0.1244,0.1352,0.1433,0.1491,0.1552,0.1602,0.1554,0.1209,0.0877,0.0419,0.0199,-0.0026,-0.0097,-0.0083,-0.0048,-0.0027,-0.0058,-0.0052,-0.0107,-0.0106,-0.0106,-0.0106,-0.0106,0.0875,0.0933,0.1018,0.1138,0.1247,0.1388,0.149,0.1608,0.174,0.1841,0.1789,0.1726,0.1353,0.0771,0.0369,-0.0054,-0.0031,-0.0185,-0.0182,-0.0179,-0.0142,-0.0123,-0.0215,-0.0216,-0.0216,-0.0216,-0.0216,0,0.094,0.1003,0.1108,0.1249,0.1369,0.1423,0.1608,0.1709,0.1875,0.1965,0.2001,0.1647,0.127,0.083,0.0204,-0.0164,-0.0184,-0.0283,-0.0231,-0.0225,-0.0221,-0.0186,-0.0272,-0.0273,-0.0275,-0.0276,0,0,0.0974,0.1074,0.1122,0.132,0.1427,0.1598,0.1709,0.1862,0.1966,0.2051,0.2022,0.1945,0.1414,0.0948,0.0446,0.0078,0.0014,0.0013,0.0103,0.0231,0.0239,-0.0115,-0.0047,0,0,0,0,0]}],[{"header":{"parameterUnit":"m.s-1","parameterCategory":2,"la1":30.2991,"la2":30.254,"lo1":-89.0895,"lo2":-89.0444,"dy":0.0017,"dx":0.0017,"nx":28,"ny":28,"refTime":"2024-03-06T09:00:00:Z","depth":"4","parameterNumber":2,"parameterNumberName":"U-component_of_CURRENTS"},"data":[0,0,0,0,0,0,0,0,0,0,0,0,0,0,0,0,0,0,0,0,0,0,0,0,0,0,0,0,0,0,0,0,0,0,0,0,0,0,0,0,0,0,0,0,0,0,0,0,0,0,0,0,0,0,0,0,0,0,0.2144,0.2145,0,0.2251,0.2253,0.2254,0.235,0.2351,0.2352,0.2353,0.2505,0.2507,0.251,0,0,0,0,0,0,0,0,0,0,0,0,0,0.2008,0.201,0.2144,0.2145,0.2147,0.2251,0.2253,0.2254,0.2349,0.2351,0.2352,0.2353,0.2504,0.2507,0.2511,0,0,0,0,0,0,0,0,0,0,0,0,0,0.2087,0.2011,0.2144,0.2207,0.2213,0.2251,0.2253,0.2255,0.2349,0.2351,0.2352,0.2354,0.2502,0.2507,0.2511,0.2506,0,0,0.2525,0.2527,0,0,0,0,0,0,0,0,0.2082,0.2092,0.2196,0.2202,0.221,0.2289,0.2261,0.2341,0.2349,0.2298,0.2353,0.2355,0.2435,0.2445,0.2461,0.2513,0.252,0.2525,0.2528,0.253,0.2531,0,0,0,0,0,0,0,0.2077,0.2087,0.2187,0.2197,0.2206,0.2225,0.2238,0.2276,0.2357,0.2302,0.231,0.2321,0.2439,0.2457,0.2466,0.2522,0.2525,0.2529,0.2532,0.2534,0.2727,0.2729,0,0,0,0,0,0,0.2062,0.2082,0.2183,0.219,0.2149,0.2226,0.2241,0.2262,0.2356,0.2371,0.2319,0.2325,0.2448,0.246,0.2472,0.26,0.253,0.2534,0.2537,0.2725,0.2728,0.273,0,0,0,0,0,0,0.2059,0.207,0.2179,0.2138,0.2153,0.2227,0.225,0.2263,0.2329,0.2368,0.2385,0.2377,0.245,0.2465,0.2549,0.2602,0.2536,0.254,0.2722,0.2726,0.2729,0.2775,0,0,0,0,0,0,0.2055,0.2069,0.2101,0.2137,0.2155,0.2229,0.2248,0.2264,0.233,0.234,0.2422,0.2435,0.2452,0.2542,0.2554,0.2607,0.2544,0.2719,0.2723,0.2728,0.277,0.2779,0.2787,0,0,0,0,0,0.2049,0.2077,0.2102,0.2116,0.219,0.223,0.2242,0.2298,0.2332,0.2365,0.2426,0.2435,0.258,0.2548,0.2561,0.2616,0.2716,0.2722,0.2727,0.2766,0.2777,0.2787,0,0,0,0,0,0,0.2036,0.209,0.2119,0.2164,0.2208,0.2247,0.2287,0.2322,0.2396,0.2422,0.246,0.2478,0.2574,0.2588,0.2552,0.2687,0.2652,0.266,0.2677,0.2688,0.2697,0.2706,0.2548,0,0,0,0,0,0.2046,0.2088,0.2132,0.2175,0.2199,0.2252,0.2286,0.2324,0.2379,0.2416,0.2473,0.2538,0.2597,0.2637,0.2687,0.2755,0.277,0.2802,0.2811,0.2818,0.2836,0.29,0.2915,0.2748,0.2748,0.2748,0,0,0.2052,0.209,0.2115,0.2177,0.2219,0.2263,0.2279,0.234,0.2397,0.2419,0.2529,0.2573,0.2623,0.2705,0.2749,0.2729,0.2872,0.2825,0.2831,0.2845,0.2907,0.2923,0.2937,0.2752,0.2751,0.2751,0,0,0.2069,0.2122,0.2159,0.2201,0.2269,0.2299,0.2326,0.2393,0.2449,0.2537,0.2576,0.2652,0.2743,0.2787,0.2819,0.2906,0.2916,0.2931,0.2984,0.3045,0.3059,0.3072,0.3097,0.3111,0.2934,0.2934,0.2934,0,0.208,0.2133,0.2175,0.2221,0.2263,0.2321,0.2367,0.2427,0.252,0.2571,0.2586,0.2742,0.2781,0.288,0.2917,0.2926,0.2954,0.2935,0.3055,0.3068,0.308,0.3103,0.3118,0.2937,0.2937,0.2937,0.2936,0,0.2111,0.2173,0.22,0.228,0.2327,0.238,0.2451,0.2526,0.2597,0.2652,0.278,0.2835,0.2927,0.2953,0.2967,0.3079,0.3068,0.3056,0.3022,0.3099,0.3119,0.3134,0.2941,0.294,0.2939,0.2939,0,0,0.209,0.22,0.2219,0.2264,0.2367,0.24,0.2506,0.2601,0.2682,0.278,0.2881,0.2987,0.3027,0.3067,0.3097,0.3154,0.3253,0.3153,0.3154,0.3166,0.3379,0.3165,0.316,0.3269,0.3272,0.3275,0.3351,0,0.2111,0.2192,0.2251,0.2342,0.2384,0.2475,0.2563,0.2663,0.2757,0.2869,0.2952,0.3061,0.3068,0.3126,0.3187,0.3248,0.3299,0.3232,0.3313,0.3315,0.3106,0.3172,0.3286,0.3362,0.3366,0.3368,0.337,0,0.2117,0.2176,0.226,0.2373,0.2403,0.2478,0.2622,0.2708,0.2867,0.2948,0.3066,0.3134,0.3259,0.324,0.3383,0.3347,0.3378,0.3404,0.3407,0.3204,0.3129,0.3276,0.3397,0.3395,0.3393,0.3391,0.339,0,0.2054,0.2178,0.2245,0.2287,0.2425,0.2502,0.259,0.2743,0.2831,0.3013,0.3096,0.3235,0.333,0.3402,0.3473,0.3448,0.3601,0.356,0.339,0.3374,0.3523,0.3509,0.3653,0.3653,0.3653,0.3652,0.3652,0,0.2023,0.2087,0.2234,0.2271,0.2373,0.2481,0.261,0.2723,0.2888,0.2989,0.314,0.3231,0.3385,0.3481,0.3513,0.3496,0.3637,0.3411,0.3387,0.3538,0.3525,0.3532,0.3517,0.3655,0.3655,0.3654,0.3654,0,0.1935,0.2034,0.2122,0.2285,0.2345,0.2422,0.2613,0.269,0.2873,0.3011,0.3078,0.3273,0.3393,0.3499,0.3621,0.3527,0.3542,0.3501,0.3659,0.364,0.3259,0.3247,0.3297,0.329,0.3284,0.3279,0.3275,0,0.1889,0.1927,0.2112,0.217,0.2257,0.2392,0.2474,0.2668,0.2745,0.3006,0.3046,0.3241,0.3347,0.3336,0.3467,0.3494,0.3461,0.3425,0.3332,0.3255,0.3228,0.3224,0.3219,0.3266,0.3265,0.3263,0.3262,0,0.18,0.1891,0.1965,0.2088,0.2191,0.228,0.2418,0.2457,0.267,0.2861,0.2943,0.3008,0.3132,0.3204,0.3255,0.3271,0.3419,0.3364,0.3375,0.3287,0.3219,0.3197,0.3199,0.3242,0.3245,0.3247,0.3248,0,0.1743,0.1774,0.1888,0.1977,0.2091,0.213,0.2223,0.2309,0.241,0.2681,0.2707,0.2915,0.3102,0.3092,0.3144,0.3138,0.3082,0.2958,0.2989,0.3013,0.2885,0.2755,0.2624,0,0,0,0,0,0.1671,0.1687,0.176,0.1843,0.1945,0.2013,0.216,0.2251,0.2458,0.2441,0.2564,0.2665,0.2742,0.285,0.2788,0.3025,0.3098,0.2938,0.2972,0.3132,0.3155,0.3031,0,0,0,0,0,0,0.1621,0.1686,0.171,0.171,0.1736,0.1825,0.1909,0.2049,0.2047,0.227,0.2326,0.2495,0.2613,0.2754,0.2737,0.2769,0.273,0.3069,0.3062,0.3119,0.314,0.3158,0.3039,0,0,0,0,0]},{"header":{"parameterUnit":"m.s-1","parameterCategory":2,"la1":30.2991,"la2":30.254,"lo1":-89.0895,"lo2":-89.0444,"dy":0.0017,"dx":0.0017,"nx":28,"ny":28,"refTime":"2024-03-06T09:00:00:Z","depth":"4","parameterNumber":3,"parameterNumberName":"V-component_of_CURRENTS"},"data":[0,0,0,0,0,0,0,0,0,0,0,0,0,0,0,0,0,0,0,0,0,0,0,0,0,0,0,0,0,0,0,0,0,0,0,0,0,0,0,0,0,0,0,0,0,0,0,0,0,0,0,0,0,0,0,0,0,0,0.0183,0.0183,0,0.0143,0.0142,0.0141,0.0112,0.0112,0.0112,0.0112,0.0058,0.0057,0.0056,0,0,0,0,0,0,0,0,0,0,0,0,0,0.0198,0.0198,0.0183,0.0183,0.0182,0.0143,0.0142,0.0141,0.0112,0.0112,0.0112,0.0112,0.0058,0.0057,0.0055,0,0,0,0,0,0,0,0,0,0,0,0,0,0.0177,0.0198,0.0183,0.0164,0.0161,0.0143,0.0142,0.0141,0.0112,0.0112,0.0112,0.0112,0.0059,0.0057,0.0055,0.0049,0,0,0.005,0.0049,0,0,0,0,0,0,0,0,0.0179,0.0177,0.0167,0.0165,0.0162,0.0133,0.0127,0.011,0.0112,0.013,0.0112,0.0111,0.0082,0.0079,0.0071,0.0047,0.0045,0.0049,0.0048,0.0047,0.0047,0,0,0,0,0,0,0,0.018,0.0178,0.0167,0.0166,0.0164,0.0144,0.0141,0.0124,0.0108,0.0129,0.0127,0.0123,0.0081,0.0073,0.0069,0.0044,0.0049,0.0048,0.0047,0.0046,0.0014,0.0015,0,0,0,0,0,0,0.0189,0.018,0.0168,0.0165,0.0171,0.0144,0.014,0.0142,0.0108,0.0103,0.0123,0.0122,0.0076,0.0072,0.0067,0.0076,0.0047,0.0046,0.0045,0.0014,0.0015,0.0015,0,0,0,0,0,0,0.0189,0.0188,0.017,0.0172,0.0168,0.0144,0.0146,0.0141,0.0138,0.0104,0.0099,0.0125,0.0076,0.007,0.0059,0.0073,0.0045,0.0043,0.0014,0.0014,0.0015,0.0081,0,0,0,0,0,0,0.019,0.0189,0.0195,0.0173,0.0168,0.0168,0.0146,0.0141,0.0136,0.0134,0.0104,0.0098,0.0075,0.0062,0.0057,0.007,0.0042,0.0013,0.0014,0.0015,0.0078,0.0084,0.0088,0,0,0,0,0,0.0191,0.0203,0.0196,0.0195,0.0178,0.0169,0.0165,0.0146,0.0136,0.014,0.0118,0.0099,0.0061,0.0061,0.0055,0.0067,0.0013,0.0014,0.0015,0.0076,0.0083,0.0088,0,0,0,0,0,0,0.0214,0.0201,0.0193,0.0201,0.019,0.0164,0.0167,0.0153,0.0138,0.0136,0.0104,0.0097,0.0091,0.0069,0.0069,0.0058,0.0034,0.0033,0.0083,0.0088,0.0093,0.0109,0.004,0,0,0,0,0,0.0223,0.0228,0.0211,0.0217,0.0215,0.0192,0.0187,0.0174,0.0156,0.015,0.0129,0.0106,0.0089,0.0081,0.0061,0.0058,0.0024,0.0061,0.0066,0.007,0.0078,0.0036,0.0038,0.0017,0.0017,0.0017,0,0,0.0233,0.0227,0.0229,0.0223,0.0212,0.0218,0.0188,0.0186,0.0192,0.0146,0.015,0.0122,0.0091,0.0087,0.0082,0.0071,0.0057,0.0071,0.0075,0.0081,0.0037,0.0039,0.0041,0.0017,0.0017,0.0017,0,0,0.026,0.0253,0.0268,0.0262,0.0252,0.024,0.0243,0.0224,0.0217,0.0213,0.0183,0.0163,0.014,0.0119,0.0106,0.0125,0.0083,0.012,0.016,0.012,0.0121,0.0122,0.0078,0.0075,0.0124,0.0124,0.0124,0,0.0272,0.029,0.027,0.0283,0.0289,0.0255,0.0277,0.0264,0.0243,0.0244,0.0224,0.0185,0.0155,0.015,0.0156,0.0137,0.0106,0.0144,0.0127,0.0127,0.0127,0.0081,0.0077,0.0127,0.0127,0.0127,0.0126,0,0.0309,0.0324,0.0333,0.0342,0.0345,0.0355,0.034,0.0338,0.0324,0.0308,0.0298,0.0251,0.023,0.0215,0.0192,0.0183,0.0158,0.0137,0.0115,0.0133,0.0084,0.0078,0.0132,0.0131,0.013,0.0129,0,0,0.0338,0.0357,0.0362,0.0383,0.0379,0.039,0.04,0.0405,0.0421,0.0382,0.0394,0.035,0.032,0.0302,0.0264,0.0228,0.0194,0.0191,0.0187,0.0153,0.0103,0.0087,0.0078,0.0172,0.0171,0.0171,0.0068,0,0.0376,0.0419,0.0419,0.0467,0.049,0.0473,0.0492,0.0489,0.0476,0.0474,0.0416,0.041,0.0355,0.0349,0.0303,0.0227,0.0182,0.0224,0.0085,0.0081,0.007,0.0072,0.0169,0.0063,0.0062,0.0061,0.006,0,0.0417,0.0442,0.0498,0.0539,0.055,0.0577,0.0608,0.0621,0.0602,0.0589,0.0558,0.051,0.0458,0.0405,0.0275,0.0306,0.0213,0.0143,0.0136,0.0096,0.0054,0.004,0.0048,0.0049,0.005,0.0051,0.0051,0,0.0454,0.0503,0.0555,0.0567,0.0602,0.0635,0.0658,0.0661,0.0689,0.0668,0.0674,0.0592,0.0561,0.0436,0.0287,0.0283,0.0134,0.0105,-0.0002,-0.0005,0.0011,0.0011,0.0006,0.0007,0.0007,0.0007,0.0007,0,0.0493,0.0536,0.0584,0.0611,0.0689,0.0694,0.0769,0.0773,0.0788,0.083,0.0744,0.0741,0.0569,0.0461,0.0312,0.014,0.0148,0.0006,-0.003,0.004,0.0044,0.0006,0.0007,0.0003,0.0004,0.0005,0.0005,0,0.0524,0.055,0.0617,0.0678,0.071,0.0768,0.0854,0.0897,0.0903,0.095,0.0949,0.0854,0.0713,0.0526,0.0319,0.0185,0.0015,-0.0052,0.004,0.001,-0.0107,-0.0101,-0.0181,-0.0183,-0.0184,-0.0185,-0.0186,0,0.054,0.0579,0.0674,0.0728,0.0766,0.0854,0.0915,0.0955,0.1005,0.102,0.1041,0.0926,0.0837,0.0536,0.0326,0.0034,-0.0013,-0.011,-0.0115,-0.0098,-0.0125,-0.0118,-0.011,-0.0187,-0.0188,-0.0188,-0.0188,0,0.0573,0.0612,0.0668,0.0779,0.0863,0.096,0.1051,0.1096,0.1142,0.1149,0.112,0.0963,0.0797,0.0547,0.0319,0.0109,-0.005,-0.0123,-0.0123,-0.0128,-0.0106,-0.0131,-0.0122,-0.0192,-0.0192,-0.0191,-0.0191,0,0.0601,0.0646,0.0725,0.0825,0.0932,0.1034,0.1082,0.114,0.1189,0.1202,0.119,0.1008,0.0906,0.0585,0.0378,0.0167,0.0103,0.0023,0.0015,0.0016,0.0098,0.0156,0.0123,0,0,0,0,0,0.0623,0.0673,0.0762,0.0871,0.0977,0.1045,0.1156,0.1193,0.1242,0.1234,0.1218,0.1064,0.0758,0.0623,0.0409,0.0332,0.0052,0.0071,-0.0048,-0.0215,-0.021,-0.0151,0,0,0,0,0,0,0.0635,0.0716,0.0757,0.0892,0.0971,0.1094,0.117,0.1206,0.1203,0.1216,0.106,0.0993,0.0695,0.0881,0.04,0.0335,0.0225,-0.0067,-0.0072,-0.0217,-0.0213,-0.0209,-0.0147,0,0,0,0,0]}]]